DW9435 Weather Reports


Display with metric or nautical units.
time (UTC)temp
F
wind
direction
speed
MPH
gust
MPH
rain 1hr
in
rain 24hr
in
rain mn
in
humidity
%
barometer
mb
20260507063041 55 174 8.0 16.0 0.00 0.19 0.00 34 1017.1
20260507061537 55 147 10.0 20.0 0.00 0.19 0.00 34 1017.2
20260507060034 54 141 11.0 22.0 0.00 0.19 0.00 34 1017.0
20260507054533 54 124 11.0 25.0 0.00 0.19 0.19 39 1017.0
20260507053036 54 172 13.0 21.0 0.00 0.19 0.19 35 1016.8
20260507051532 55 153 8.0 16.0 0.00 0.19 0.19 30 1016.9
20260507050040 55 158 6.0 13.0 0.00 0.19 0.19 29 1017.1
20260507044530 54 135 6.0 9.0 0.00 0.19 0.19 28 1017.1
20260507043030 54 160 2.0 4.0 0.00 0.19 0.19 29 1017.0
20260507041529 54 135 2.0 4.0 0.00 0.19 0.19 28 1017.0
20260507040030 54 131 2.0 4.0 0.00 0.19 0.19 29 1017.1
20260507034530 54 162 2.0 4.0 0.00 0.19 0.19 30 1017.2
20260507033028 54 159 2.0 5.0 0.00 0.19 0.19 29 1016.9
20260507031527 54 166 3.0 4.0 0.00 0.19 0.19 29 1016.6
20260507030029 55 166 3.0 5.0 0.00 0.19 0.19 29 1016.6
20260507024528 56 217 2.0 3.0 0.00 0.19 0.19 29 1016.5
20260507023025 57 297 0.0 3.0 0.00 0.19 0.19 26 1016.6
20260507021525 58 337 2.0 6.0 0.00 0.19 0.19 26 1016.4
20260507020025 59 333 4.0 7.0 0.00 0.19 0.19 25 1016.4
20260507014524 59 345 4.0 8.0 0.00 0.19 0.19 25 1016.5
20260507013023 59 344 4.0 11.0 0.00 0.19 0.19 25 1016.6
20260507011524 60 32 6.0 13.0 0.00 0.19 0.19 25 1016.7
20260507010026 59 51 4.0 15.0 0.00 0.19 0.19 24 1016.7
20260507004522 59 329 8.0 15.0 0.00 0.19 0.19 24 1016.8
20260507003022 59 317 8.0 15.0 0.00 0.19 0.19 24 1016.7
20260507001520 60 36 5.0 15.0 0.00 0.19 0.19 24 1016.8
20260507000018 59 316 6.0 10.0 0.00 0.19 0.19 25 1016.8
20260506234517 58 321 11.0 17.0 0.00 0.19 0.19 25 1016.8
20260506233016 58 34 8.0 18.0 0.00 0.19 0.19 26 1016.7
20260506231513 58 329 8.0 17.0 0.00 0.19 0.19 26 1016.9
20260506230019 58 321 11.0 16.0 0.00 0.19 0.19 26 1016.8
20260506224512 58 327 5.0 20.0 0.00 0.19 0.19 27 1016.9
20260506223010 58 311 5.0 14.0 0.00 0.19 0.19 27 1016.9
20260506221508 57 327 8.0 22.0 0.00 0.19 0.19 28 1017.0
20260506220010 57 340 11.0 21.0 0.00 0.19 0.19 26 1017.0
20260506214507 57 354 10.0 21.0 0.00 0.19 0.19 27 1017.3
20260506213006 56 348 10.0 19.0 0.00 0.19 0.19 28 1017.3
20260506211505 56 295 8.0 18.0 0.00 0.19 0.19 27 1017.3
20260506210005 55 349 7.0 21.0 0.00 0.19 0.19 29 1017.3
20260506204502 55 325 11.0 22.0 0.00 0.19 0.19 28 1017.2
20260506203100 55 293 14.0 22.0 0.00 0.19 0.19 26 1017.2
20260506201558 55 297 6.0 15.0 0.00 0.19 0.19 27 1017.3
20260506200056 54 330 8.0 18.0 0.00 0.19 0.19 27 1017.3
20260506194553 54 359 10.0 17.0 0.00 0.19 0.19 26 1017.2
20260506193051 53 356 15.0 20.0 0.00 0.19 0.19 25 1017.3
20260506191551 52 339 11.0 19.0 0.00 0.19 0.19 25 1017.3
20260506190046 52 338 8.0 17.0 0.00 0.19 0.19 28 1017.3
20260506184558 51 331 11.0 23.0 0.00 0.19 0.19 26 1017.2
20260506183045 52 325 12.0 19.0 0.00 0.19 0.19 25 1017.3
20260506181543 50 325 12.0 25.0 0.00 0.19 0.19 29 1017.2
20260506180043 50 330 13.0 25.0 0.00 0.19 0.19 31 1017.2
20260506174540 50 328 12.0 24.0 0.00 0.19 0.19 30 1017.0
20260506173045 49 315 11.0 23.0 0.00 0.19 0.19 33 1016.9
20260506171553 49 336 16.0 25.0 0.00 0.19 0.19 31 1016.7
20260506170038 48 323 12.0 23.0 0.00 0.19 0.19 33 1016.4
20260506164533 48 6 9.0 16.0 0.00 0.19 0.19 38 1016.3
20260506163035 47 333 11.0 24.0 0.00 0.19 0.19 38 1016.0
20260506161530 47 338 19.0 25.0 0.00 0.19 0.19 39 1015.8
20260506160029 47 338 14.0 24.0 0.00 0.19 0.19 40 1015.5
20260506154524 47 314 13.0 25.0 0.00 0.19 0.19 44 1015.3
20260506153022 47 9 8.0 19.0 0.00 0.19 0.19 49 1015.2
20260506151524 47 30 8.0 20.0 0.00 0.19 0.19 49 1014.8
20260506150017 46 338 11.0 21.0 0.00 0.19 0.19 50 1014.7
20260506144514 46 25 9.0 15.0 0.00 0.20 0.19 57 1014.4
20260506143012 45 336 4.0 13.0 0.00 0.20 0.19 64 1014.3
20260506141510 43 346 4.0 8.0 0.00 0.20 0.19 67 1014.3
20260506140016 43 19 2.0 6.0 0.00 0.20 0.19 69 1014.1
20260506134507 42 79 2.0 5.0 0.00 0.25 0.19 70 1013.8
20260506133005 42 84 2.0 5.0 0.00 0.25 0.19 76 1013.6
20260506131503 40 114 1.0 5.0 0.00 0.25 0.19 89 1013.2
20260506130101 38 134 1.0 3.0 0.00 0.25 0.19 95 1012.9
20260506124559 38 115 0.0 3.0 0.00 0.25 0.19 95 1012.5
20260506123058 38 284 1.0 3.0 0.00 0.25 0.19 95 1012.4
20260506121559 38 179 2.0 5.0 0.00 0.25 0.19 95 1012.3
20260506120054 38 173 4.0 8.0 0.00 0.25 0.19 95 1012.1
20260506114553 38 210 5.0 8.0 0.00 0.25 0.19 95 1012.0
20260506113044 39 201 3.0 7.0 0.00 0.25 0.19 95 1012.0
20260506111541 39 217 7.0 9.0 0.00 0.25 0.19 95 1011.7
20260506110040 39 169 3.0 6.0 0.00 0.25 0.19 95 1011.4
20260506104543 39 252 4.0 7.0 0.00 0.25 0.19 95 1011.2
20260506103035 39 231 4.0 9.0 0.00 0.25 0.19 94 1011.0
20260506101531 40 191 4.0 8.0 0.01 0.25 0.19 94 1010.5
20260506100028 40 231 6.0 10.0 0.08 0.25 0.19 94 1010.2
20260506094524 41 236 4.0 12.0 0.13 0.25 0.19 94 1009.8
20260506093020 43 243 2.0 3.0 0.19 0.25 0.19 94 1009.5
20260506091521 43 150 0.0 5.0 0.18 0.24 0.18 92 1009.2
20260506090016 45 30 15.0 25.0 0.11 0.17 0.11 84 1009.6
20260506084511 48 143 0.0 10.0 0.05 0.11 0.05 71 1008.6
20260506083006 49 143 9.0 15.0 0.00 0.06 0.00 67 1007.5
20260506081506 49 162 1.0 3.0 0.00 0.06 0.00 69 1007.3
20260506073100 49 54 2.0 3.0 0.00 0.06 0.00 70 1008.0
20260506071559 50 331 2.0 5.0 0.00 0.06 0.00 66 1007.9